• In Deutschland
  • Länderverzeichnis
  • Für 7 Tage
  • Wassertemperatur
  • Satellitenkarten
  • Wetterkarte
  • Widgets
  • user-avatar
    Anmelden

    Stündliche Wetter Korbach

    Heute, 23 Juli, Montag

    Zeit Temperatur Niederschläge Wind Luftdruck Luftfeuchtigkeit
    00:00 +15°C° 0 mm 0 m/S 728 mmHg 90%
    01:00 +15°C° 0 mm 0 m/S 728 mmHg 91%
    02:00 +14°C° 0 mm 0 m/S 728 mmHg 91%
    03:00 +14°C° 0 mm 0 m/S 728 mmHg 92%
    04:00 +14°C° 0 mm 0 m/S 728 mmHg 92%
    05:00 +15°C° 0 mm 0 m/S 728 mmHg 90%
    06:00 +16°C° 0 mm 0 m/S 728 mmHg 88%
    07:00 +17°C° 0 mm 0 m/S 729 mmHg 86%
    08:00 +21°C° 0 mm 1 m/S 729 mmHg 78%
    09:00 +23°C° 0 mm 1 m/S 729 mmHg 69%
    10:00 +24°C° 0 mm 1 m/S 729 mmHg 61%
    11:00 +25°C° 0 mm 2 m/S 729 mmHg 57%
    12:00 +26°C° 0 mm 2 m/S 729 mmHg 53%
    13:00 +27°C° 0 mm 2 m/S 729 mmHg 49%
    14:00 +27°C° 0 mm 2 m/S 729 mmHg 50%
    15:00 +27°C° 0 mm 2 m/S 729 mmHg 50%
    16:00 +27°C° 0 mm 2 m/S 728 mmHg 51%
    17:00 +26°C° 0 mm 2 m/S 728 mmHg 57%
    18:00 +25°C° 0 mm 1 m/S 728 mmHg 62%
    19:00 +24°C° 0 mm 1 m/S 728 mmHg 68%
    20:00 +23°C° 0 mm 1 m/S 728 mmHg 72%
    21:00 +21°C° 0 mm 1 m/S 728 mmHg 77%
    22:00 +19°C° 0 mm 1 m/S 728 mmHg 82%
    23:00 +19°C° 0 mm 1 m/S 728 mmHg 84%

    Morgen, 24 Juli, Dienstag

    Zeit Temperatur Niederschläge Wind Luftdruck Luftfeuchtigkeit
    00:00 +18°C° 0 mm 1 m/S 728 mmHg 85%
    01:00 +18°C° 0 mm 1 m/S 728 mmHg 87%
    02:00 +16°C° 0 mm 0 m/S 728 mmHg 88%
    03:00 +15°C° 0 mm 0 m/S 728 mmHg 89%
    04:00 +15°C° 0 mm 0 m/S 728 mmHg 90%
    05:00 +16°C° 0 mm 0 m/S 728 mmHg 86%
    06:00 +18°C° 0 mm 0 m/S 728 mmHg 82%
    07:00 +19°C° 0 mm 0 m/S 728 mmHg 77%
    08:00 +23°C° 0 mm 1 m/S 728 mmHg 70%
    09:00 +25°C° 0 mm 1 m/S 729 mmHg 63%
    10:00 +26°C° 0 mm 1 m/S 729 mmHg 56%
    11:00 +27°C° 0 mm 2 m/S 728 mmHg 52%
    12:00 +28°C° 0 mm 2 m/S 728 mmHg 49%
    13:00 +29°C° 0 mm 2 m/S 728 mmHg 45%
    14:00 +29°C° 0 mm 2 m/S 728 mmHg 45%
    15:00 +29°C° 0 mm 2 m/S 727 mmHg 45%
    16:00 +29°C° 0 mm 2 m/S 727 mmHg 45%
    17:00 +28°C° 0 mm 2 m/S 727 mmHg 52%
    18:00 +27°C° 0 mm 2 m/S 727 mmHg 59%
    19:00 +26°C° 0 mm 2 m/S 727 mmHg 65%
    20:00 +24°C° 0 mm 1 m/S 727 mmHg 69%
    21:00 +23°C° 0 mm 1 m/S 727 mmHg 73%
    22:00 +21°C° 0 mm 1 m/S 727 mmHg 77%
    23:00 +20°C° 0 mm 1 m/S 727 mmHg 79%

    übermorgen, 25 Juli, Mittwoch

    Zeit Temperatur Niederschläge Wind Luftdruck Luftfeuchtigkeit
    00:00 +20°C° 0 mm 1 m/S 727 mmHg 80%
    01:00 +19°C° 0 mm 1 m/S 727 mmHg 81%
    02:00 +19°C° 0 mm 1 m/S 727 mmHg 82%
    03:00 +19°C° 0 mm 1 m/S 727 mmHg 83%
    04:00 +18°C° 0 mm 1 m/S 727 mmHg 83%
    05:00 +20°C° 0 mm 1 m/S 727 mmHg 80%
    06:00 +21°C° 0 mm 1 m/S 727 mmHg 77%
    07:00 +22°C° 0 mm 1 m/S 728 mmHg 74%
    08:00 +24°C° 0 mm 1 m/S 728 mmHg 67%
    09:00 +26°C° 0 mm 1 m/S 728 mmHg 60%
    10:00 +28°C° 0 mm 2 m/S 728 mmHg 54%
    11:00 +29°C° 0 mm 2 m/S 728 mmHg 50%
    12:00 +30°C° 0 mm 2 m/S 728 mmHg 47%
    13:00 +30°C° 0 mm 2 m/S 728 mmHg 44%
    14:00 +30°C° 0 mm 2 m/S 728 mmHg 45%
    15:00 +30°C° 0 mm 2 m/S 728 mmHg 45%
    16:00 +30°C° 0 mm 1 m/S 728 mmHg 46%
    17:00 +29°C° 0 mm 1 m/S 727 mmHg 52%
    18:00 +28°C° 0 mm 1 m/S 727 mmHg 57%
    19:00 +27°C° 0 mm 1 m/S 727 mmHg 63%
    20:00 +26°C° 0 mm 1 m/S 727 mmHg 67%
    21:00 +24°C° 0 mm 1 m/S 727 mmHg 70%
    22:00 +22°C° 0 mm 1 m/S 728 mmHg 74%
    23:00 +22°C° 0 mm 1 m/S 728 mmHg 76%

    26 Juli, Donnerstag

    Zeit Temperatur Niederschläge Wind Luftdruck Luftfeuchtigkeit
    00:00 +21°C° 0 mm 1 m/S 728 mmHg 77%
    01:00 +19°C° 0 mm 0 m/S 728 mmHg 79%
    02:00 +19°C° 0 mm 0 m/S 728 mmHg 80%
    03:00 +18°C° 0 mm 0 m/S 728 mmHg 81%
    04:00 +18°C° 0 mm 0 m/S 728 mmHg 82%
    05:00 +19°C° 0 mm 0 m/S 728 mmHg 79%
    06:00 +20°C° 0 mm 0 m/S 728 mmHg 76%
    07:00 +22°C° 0 mm 0 m/S 729 mmHg 73%
    08:00 +25°C° 0,1 mm 1 m/S 729 mmHg 67%
    09:00 +27°C° 0,1 mm 1 m/S 729 mmHg 60%
    10:00 +29°C° 0,1 mm 2 m/S 729 mmHg 53%
    11:00 +30°C° 0 mm 2 m/S 729 mmHg 50%
    12:00 +30°C° 0 mm 2 m/S 729 mmHg 46%
    13:00 +31°C° 0 mm 2 m/S 729 mmHg 43%
    14:00 +31°C° 0 mm 2 m/S 729 mmHg 43%
    15:00 +31°C° 0 mm 2 m/S 728 mmHg 43%
    16:00 +31°C° 0 mm 2 m/S 728 mmHg 43%
    17:00 +30°C° 0 mm 2 m/S 728 mmHg 50%
    18:00 +29°C° 0 mm 2 m/S 728 mmHg 56%
    19:00 +28°C° 0 mm 2 m/S 728 mmHg 63%
    20:00 +26°C° 0 mm 2 m/S 728 mmHg 67%
    21:00 +24°C° 0 mm 1 m/S 728 mmHg 71%
    22:00 +22°C° 0 mm 1 m/S 728 mmHg 74%
    23:00 +22°C° 0 mm 1 m/S 728 mmHg 75%

    27 Juli, Freitag

    Zeit Temperatur Niederschläge Wind Luftdruck Luftfeuchtigkeit
    00:00 +21°C° 0 mm 1 m/S 728 mmHg 76%
    01:00 +21°C° 0 mm 1 m/S 728 mmHg 77%
    02:00 +20°C° 0 mm 1 m/S 728 mmHg 78%
    03:00 +20°C° 0 mm 1 m/S 728 mmHg 79%
    04:00 +20°C° 0 mm 1 m/S 728 mmHg 81%
    05:00 +21°C° 0 mm 1 m/S 728 mmHg 78%
    06:00 +22°C° 0 mm 1 m/S 728 mmHg 76%
    07:00 +23°C° 0 mm 1 m/S 728 mmHg 74%
    08:00 +24°C° 0 mm 1 m/S 728 mmHg 66%
    09:00 +26°C° 0 mm 2 m/S 728 mmHg 58%
    10:00 +28°C° 0 mm 2 m/S 728 mmHg 50%
    11:00 +29°C° 0 mm 2 m/S 728 mmHg 46%
    12:00 +29°C° 0 mm 2 m/S 727 mmHg 42%
    13:00 +30°C° 0 mm 2 m/S 727 mmHg 38%
    14:00 +30°C° 0 mm 2 m/S 727 mmHg 38%
    15:00 +30°C° 0 mm 2 m/S 727 mmHg 38%
    16:00 +30°C° 0 mm 1 m/S 726 mmHg 37%
    17:00 +29°C° 0 mm 1 m/S 726 mmHg 44%
    18:00 +28°C° 0 mm 1 m/S 726 mmHg 50%
    19:00 +27°C° 0 mm 1 m/S 726 mmHg 57%
    20:00 +25°C° 0 mm 1 m/S 726 mmHg 59%
    21:00 +23°C° 0 mm 1 m/S 726 mmHg 62%
    22:00 +21°C° 0 mm 1 m/S 726 mmHg 65%
    23:00 +21°C° 0 mm 1 m/S 726 mmHg 66%

    28 Juli, Samstag

    Zeit Temperatur Niederschläge Wind Luftdruck Luftfeuchtigkeit
    00:00 +21°C° 0 mm 1 m/S 726 mmHg 67%
    01:00 +20°C° 0 mm 1 m/S 726 mmHg 68%
    02:00 +20°C° 0 mm 1 m/S 725 mmHg 69%
    03:00 +20°C° 0 mm 1 m/S 725 mmHg 70%
    04:00 +20°C° 0 mm 1 m/S 725 mmHg 71%
    05:00 +21°C° 0 mm 1 m/S 725 mmHg 70%
    06:00 +22°C° 0 mm 1 m/S 726 mmHg 69%
    07:00 +23°C° 0 mm 1 m/S 726 mmHg 69%
    08:00 +24°C° 0,1 mm 1 m/S 726 mmHg 66%
    09:00 +26°C° 0,1 mm 2 m/S 726 mmHg 63%
    10:00 +28°C° 0,1 mm 2 m/S 727 mmHg 60%
    11:00 +28°C° 0,4 mm 2 m/S 727 mmHg 58%
    12:00 +29°C° 0,4 mm 2 m/S 727 mmHg 56%
    13:00 +29°C° 0,4 mm 3 m/S 727 mmHg 54%
    14:00 +29°C° 0,3 mm 3 m/S 727 mmHg 55%
    15:00 +29°C° 0,3 mm 2 m/S 727 mmHg 56%
    16:00 +29°C° 0,3 mm 2 m/S 727 mmHg 57%
    17:00 +28°C° 0,1 mm 2 m/S 727 mmHg 61%
    18:00 +27°C° 0,1 mm 2 m/S 727 mmHg 66%
    19:00 +26°C° 0,1 mm 1 m/S 727 mmHg 70%
    20:00 +24°C° 0,1 mm 1 m/S 727 mmHg 74%
    21:00 +23°C° 0,1 mm 1 m/S 728 mmHg 78%
    22:00 +21°C° 0,1 mm 1 m/S 728 mmHg 83%
    23:00 +20°C° 0 mm 1 m/S 728 mmHg 86%
    Mehr zeigen